User: anonymous   Login
Location: Unspecified
(35.7250°N, 0.0000°E)
Time: 17:05:51
(UTC+00:00)
Language:

BEESAT 2 - Orbit

View from above orbital plane
View from above orbital plane
View from above satellite
View from above satellite

Ground track
Ground track

The orbit data is extracted from the following two-line orbital elements,

1 39136U 13015G   19199.38150709  .00000336  00000-0  26936-4 0  9996
2 39136  64.8712 306.8718 0020683 299.1724  60.7332 15.16935033344679
Epoch (UTC): 18 July 2019 09:09:22
Eccentricity: 0.0020683
inclination: 64.8712°
perigee height: 501 km
apogee height: 529 km
right ascension of ascending node: 306.8718°
argument of perigee: 299.1724°
revolutions per day: 15.16935033
mean anomaly at epoch: 60.7332°
orbit number at epoch: 34467

The dashed part of the orbit path shows where the satellite is in the earth's shadow,  

DLR